Hourly Data Report for October 08, 2013

All times are specified in Local Standard Time (LST). Add 1 hour to adjust for Daylight Saving Time where and when it is observed.

KAMLOOPS A
BRITISH COLUMBIA

50°42'09.000" N
120°26'55.000" W
345.30 m
1163781
71887
YKA

Download Data

Hourly Data (October 2013)
Hourly Data Report for October 8, 2013
Temp Definition
°C
Dew Point Temp Definition
°C
Rel Hum Definition
%
Wind Dir Definition
10's deg

Wind Spd Definition
km/h
Visibility Definition
km
Stn Press Definition
kPa
Hmdx Definition


Wind Chill Definition


Weather Definition


TIME
00:00 Legend Double Dagger 9.7 3.9 67 30 6 64.4 96.70     LegendNANA
01:00 Legend Double Dagger 11.3 2.6 55 34 18 64.4 96.81     Mostly Cloudy
02:00 Legend Double Dagger 9.0 3.4 68 26 18 48.3 96.95     Rain Showers
03:00 Legend Double Dagger 8.1 3.4 72 27 11 48.3 96.94     LegendNANA
04:00 Legend Double Dagger 8.2 3.7 73 28 17 48.3 96.96     Cloudy
05:00 Legend Double Dagger 7.5 3.9 78 28 17 64.4 97.02     LegendNANA
06:00 Legend Double Dagger 6.9 3.2 77 28 15 48.3 97.10     LegendNANA
07:00 Legend Double Dagger 7.7 3.6 75 26 12 64.4 97.15     Mostly Cloudy
08:00 Legend Double Dagger 9.4 3.6 67 26 24 64.4 97.21     LegendNANA
09:00 Legend Double Dagger 10.5 1.6 54 27 26 64.4 97.25     LegendNANA
10:00 Legend Double Dagger 11.1 1.4 51 27 26 64.4 97.27     Mainly Clear
11:00 Legend Double Dagger 12.6 0.1 42 26 35 64.4 97.27     LegendNANA
12:00 Legend Double Dagger 12.7 0.2 42 29 34 64.4 97.31     LegendNANA
13:00 Legend Double Dagger 11.6 0.7 47 28 31 64.4 97.32     Mostly Cloudy
14:00 Legend Double Dagger 12.7 -1.9 36 30 32 64.4 97.34     LegendNANA
15:00 Legend Double Dagger 12.5 -1.0 39 26 22 64.4 97.39     LegendNANA
16:00 Legend Double Dagger 11.4 0.8 48 27 26 64.4 97.45     Mainly Clear
17:00 Legend Double Dagger 10.6 0.4 49 27 23 64.4 97.55     LegendNANA
18:00 Legend Double Dagger 9.8 0.2 51 27 24 64.4 97.69     LegendNANA
19:00 Legend Double Dagger 8.2 0.2 57 28 13 64.4 97.75     Mainly Clear
20:00 Legend Double Dagger 6.4 0.1 64 27 16 64.4 97.81     LegendNANA
21:00 Legend Double Dagger 7.2 0.4 62 27 15 64.4 97.86     LegendNANA
22:00 Legend Double Dagger 7.2 0.0 60 26 15 64.4 97.89     Clear
23:00 Legend Double Dagger 6.5 0.2 64 26 15 64.4 97.90     LegendNANA

Notes on Data Quality.

Legend

  • E = Estimated
  • M = Missing
  • NA = Not Available
  • ‡ = Partner data that is not subject to review by the National Climate Archives
Date modified: